Regional Weather Roundup
Issued by NWS Little Rock, AR

Home | Current Version | Previous Version | Graphics & Text | Print | Product List | Glossary On
Versions: 1 2 3 4 5 6 7 8 9 10 11 12 13 14 15 16 17 18 19 20 21 22 23 24 25 26 27 28 29 30 31 32 33 34 35 36 37 38 39 40 41 42 43 44 45 46 47 48 49 50
000
ASUS44 KLZK 051405
RWRLZK

WEATHER ROUNDUP FOR ARKANSAS
NATIONAL WEATHER SERVICE LITTLE ROCK AR
800 AM CST THU MAR 05 2015

NOTE: "FAIR" INDICATES FEW OR NO CLOUDS BELOW 12,000 FEET WITH NO
SIGNIFICANT WEATHER AND/OR OBSTRUCTIONS TO VISIBILITY.

ARZ001-003-010-029-051500-
NORTHWEST ARKANSAS

CITY           SKY/WX    TMP DP  RH WIND       PRES   REMARKS
FAYETTEVILLE   SUNNY     20  11  68 N8        30.51R WCI  10
FORT SMITH     SUNNY     25  14  63 NW7       30.56R WCI  17
HARRISON       SUNNY     20  11  68 NW6       30.47R WCI  12
BENTONVILLE    SUNNY     19  10  68 CALM      30.51R
ROGERS         SUNNY     25  19  78 NW3       30.51R
SILOAM SPGS    SUNNY     19  10  68 N5        30.53R WCI  13
HIGHFILL       SUNNY     20  12  71 N6        30.50R WCI  12
SPRINGDALE     SUNNY     19  12  73 NE9       30.52R WCI   9
$$

ARZ004-005-016-051500-
NORTH CENTRAL ARKANSAS

CITY           SKY/WX    TMP DP  RH WIND       PRES   REMARKS
BATESVILLE     PTSUNNY   21  12  68 W6        30.49R WCI  14
FLIPPIN        SUNNY     21  10  63 CALM      30.49R
MTN HOME       SUNNY     22  14  71 NW3       30.48R
$$

ARZ040-041-051500-
WEST CENTRAL ARKANSAS

CITY           SKY/WX    TMP DP  RH WIND       PRES   REMARKS
MENA           MOSUNNY   27  18  69 CALM      30.48R
MOUNT IDA      MOSUNNY   24  19  81 NW7       30.47R WCI  16
$$

ARZ009-017-025-026-028-051500-
NORTHEAST ARKANSAS

CITY           SKY/WX    TMP DP  RH WIND       PRES   REMARKS
CORNING        FAIR      23  10  58 N8        30.49R WCI  14
JONESBORO      FLURRIES  22  11  62 N12       30.46R WCI  10
NEWPORT        CLOUDY    23  14  68 N12       30.51R WCI  12
WALNUT RIDGE   CLOUDY    21  10  63 N10       30.49R WCI  10
BLYTHEVILLE    CLOUDY    22  15  75 N18       30.47R WCI   7
$$

ARZ022-023-033-042-044-051500-
CENTRAL ARKANSAS

CITY           SKY/WX    TMP DP  RH WIND       PRES   REMARKS
LITTLE ROCK    PTSUNNY   24  17  74 N9        30.51R WCI  14
N LITTLE ROCK  PTSUNNY   22  20  94 N7        30.51R WCI  13
JACKSONVILLE   CLOUDY    23  18  80 NW6       30.49R WCI  16
SEARCY         PTSUNNY   24  14  65 N8        30.51R WCI  15
HOT SPRINGS    PTSUNNY   24  17  74 N8        30.50R WCI  15
RUSSELLVILLE   SUNNY     22  20  92 CALM      30.52R
CLINTON        FAIR      25  12  58 CALM      30.52R
$$

ARZ036-051500-
EAST ARKANSAS

CITY           SKY/WX    TMP DP  RH WIND       PRES   REMARKS
WEST MEMPHIS   CLOUDY    21  18  88 N15       30.44R WCI   8
$$

ARZ050-053-066-070-073-051500-
SOUTHWEST ARKANSAS

CITY           SKY/WX    TMP DP  RH WIND       PRES   REMARKS
ARKADELPHIA    FAIR      25  24  96 N5        30.54R WCI  19
CAMDEN         LGT RAIN  25  19  80 CALM      30.52R
TEXARKANA      PTSUNNY   26  22  84 N13       30.53R WCI  15
EL DORADO      CLOUDY    24  20  84 N12G21    30.50R WCI  13
DE QUEEN       MOSUNNY   27  18  69 NE3       30.52R
$$

ARZ056-057-069-051500-
SOUTHEAST ARKANSAS

CITY           SKY/WX    TMP DP  RH WIND       PRES   REMARKS
PINE BLUFF     CLOUDY    23  17  78 N18       30.49R WCI   9
STUTTGART      PTSUNNY   23  18  80 N16       30.49R WCI  10
MONTICELLO     CLOUDY    24  17  74 N15G25    30.45R WCI  11

$$




USA.gov is the U.S. government's official web portal to all federal, state and local government web resources and services.